Location: Pinhead Observatory
(34.4473°N, 118.1985°W)
Time: 04:35:39
(UTC-08:00)

Daily predictions for brighter satellites

Satellite Brightness Start Highest point End
(mag) Time Altitude Azimuth Time Altitude Azimuth Time Altitude Azimuth
Cosmos 1943 Rocket 4.4 03:09:50 20° ENE 03:09:50 20° ENE 03:11:58 10° NE
ATLAS CENTAUR R/B 4.2 03:15:18 44° NE 03:15:55 45° NE 03:29:33 10° SE
CZ-4C R/B 4.5 03:18:41 16° ESE 03:18:45 16° ESE 03:22:01 10° ENE
Lacrosse 5 3.5 03:49:14 29° NE 03:49:14 29° NE 03:51:42 10° NE
ADEOS II 3.8 03:46:03 10° NNE 03:48:14 26° NNE 03:48:14 26° NNE
USA 234 3.2 03:51:36 10° NE 03:57:37 70° N 03:57:37 70° N
Cosmos 2369 Rocket 3.9 04:07:22 21° N 04:07:22 21° N 04:09:22 10° N
Cosmos 407 Rocket 4.1 04:08:28 14° N 04:13:03 55° ENE 04:18:14 10° SSE
Cosmos 1656 Rocket 4.5 04:10:17 23° S 04:13:36 49° ESE 04:19:04 10° NNE
OAO 1 Rocket 4.4 04:24:47 69° S 04:24:47 69° S 04:29:59 10° ESE
Nadezhda 2 Rocket 4.4 04:18:42 10° N 04:24:50 83° E 04:30:59 10° S
Cosmos 1833 4.5 04:24:37 10° NNW 04:30:11 66° ENE 04:35:45 10° SSE
GEOS 3 Rocket 3.4 04:25:26 10° SSE 04:30:30 77° WSW 04:31:06 67° WNW
Okean 1-7 3.7 04:29:51 10° S 04:34:01 53° E 04:38:10 10° NNE
Tiangong 1 3.3 04:39:12 20° NE 04:39:12 20° NE 04:40:22 10° NE
Cosmos 1190 Rocket 3.9 04:37:58 36° NNW 04:40:03 69° WSW 04:45:17 10° S
Sich 1 Rocket 3.4 04:36:25 10° N 04:40:56 74° W 04:45:23 10° S
Cosmos 1908 Rocket 3.4 04:38:36 10° N 04:43:04 74° W 04:47:31 10° S
Cosmos 1417 Rocket 4.4 04:38:17 10° S 04:44:29 88° E 04:50:40 10° N
ATLAS 5 CENTAUR R/B 3.3 04:45:45 22° NNW 04:45:45 22° NNW 04:48:38 10° N
Meteor 2-10 Rocket 3.3 04:43:41 19° SSW 04:47:15 71° W 04:52:16 10° N
Chunghua 1 4.4 04:48:08 80° NNW 04:48:13 81° N 04:52:01 10° E
Cosmos 1782 Rocket 3.8 04:44:10 10° N 04:48:38 71° E 04:53:02 10° SSE
Okean-O 2.6 04:46:11 10° N 04:50:31 55° WNW 04:50:57 52° W
Cosmos 1943 Rocket 2.9 04:51:24 32° NW 04:51:24 32° NW 04:55:50 10° N
Cosmos 1782 4.1 04:50:37 10° SSE 04:54:20 41° E 04:58:06 10° NNE
SKYMED 2 4.4 04:52:09 10° SSE 04:56:20 50° ENE 05:00:33 10° N
Radarsat Rocket 4.4 04:49:20 10° NNE 04:56:29 74° ESE 05:02:45 10° S
Meteor 1-14 Rocket 4.1 04:59:03 10° N 05:04:52 80° W 05:10:30 10° S
CZ-4C R/B 2.2 05:03:56 28° WSW 05:06:31 53° NW 05:12:10 10° NNE
Cosmos 1954 Rocket 3.9 05:01:46 10° NNW 05:07:07 84° WSW 05:12:25 10° SSE
Cosmos 1420 Rocket 3.9 05:04:49 10° SSW 05:09:58 69° WNW 05:15:08 10° NNE
Cosmos 1606 3.7 05:06:37 10° SSE 05:10:20 49° E 05:14:07 10° NNE
NOAA 6 4.0 05:06:26 10° N 05:11:32 63° WNW 05:16:35 10° SSW
Okean 2 Rocket 3.0 05:07:13 10° N 05:11:37 86° W 05:16:01 10° S
Ariane Rocket 3.9 05:06:54 10° NNE 05:11:52 51° E 05:16:47 10° S
Cosmos 1703 Rocket 4.4 05:18:40 25° W 05:19:08 26° WNW 05:22:48 10° NNW
Thor Agena Rocket 3.9 05:17:45 10° S 05:22:41 42° W 05:27:35 10° NNW
Meteor 2-6 Rocket 4.3 05:19:03 10° S 05:24:25 76° E 05:29:48 10° NNE
SL-08 R/B 4.5 05:19:24 10° NNW 05:25:40 67° W 05:31:55 10° S
Meteor 1-31 Rocket 4.4 05:23:54 10° NNW 05:25:51 17° NW 05:25:51 17° NW
Lacrosse 5 3.6 05:28:28 14° WNW 05:30:13 17° NNW 05:33:25 10° N
ADEOS II 4.1 05:28:53 10° NW 05:29:11 10° NW 05:29:11 10° NW
Delta 2 Rocket 3.9 05:27:00 18° WSW 05:30:43 82° SSE 05:36:12 10° E
Cosmos 2151 Rocket 4.0 05:26:18 10° N 05:30:49 70° E 05:35:14 10° SSE
S3M 4.2 05:26:13 10° SSW 05:32:19 49° W 05:38:24 10° N
CZ-4 R/B 3.5 05:29:10 10° NNE 05:32:54 32° E 05:36:32 10° SSE
Meteor 1-25 Rocket 4.3 05:28:55 10° NNW 05:34:41 62° W 05:40:24 10° S
Cosmos 1607 3.9 05:30:04 10° SSW 05:36:10 88° WNW 05:42:22 10° NNE
USA 238 DEB 4.4 05:31:39 10° SSW 05:38:30 60° ESE 05:45:23 10° NE
USA 238 4.4 05:31:45 10° SSW 05:38:36 60° ESE 05:45:29 10° NE
Cosmos 1553 Rocket 4.4 05:34:30 10° SSW 05:40:12 39° WNW 05:46:02 10° N
Cosmos 1110 Rocket 4.5 05:37:59 10° S 05:43:05 66° ESE 05:48:13 10° NNE
CSL-04 Debris 4.4 05:38:13 10° NNE 05:43:39 78° ESE 05:49:01 10° S
COSMO-SKYMED 1 3.0 05:40:17 10° S 05:44:22 40° W 05:48:28 10° NNW
Cosmos 2219 3.2 05:41:54 10° NNW 05:47:31 66° WSW 05:53:04 10° S
Cosmos 1741 Rocket 4.0 05:44:32 10° NNW 05:49:46 75° WSW 05:55:00 10° S
Meteor 1-10 Rocket 4.4 05:46:54 10° SSW 05:52:15 51° W 05:57:44 10° N
Meteor 1-11 Rocket 4.4 05:47:39 10° N 05:53:36 66° E 05:59:24 10° SSE
Cosmos 2227 Rocket 3.6 05:48:58 10° N 05:54:19 41° ENE 05:59:37 10° SE
SJ-12 3.9 06:00:00 10° N 06:04:06 87° WNW 06:08:13 10° SSW
ATLAS 3B R/B 3.0 05:58:55 10° SW 06:06:22 58° WNW 06:13:38 10° NNE
